| time (UTC) | temp C | wind direction | speed KPH | gust KPH | rain 1hr cm | rain 24hr cm | rain mn cm | humidity % | barometer mb |
| 20260508214607 | 25 | 311 | 3.2 | 12.9 | 0.00 | 0.00 | 0.00 | 26 | 1013.3 |
| 20260508213607 | 25 | 299 | 14.5 | 27.4 | 0.00 | 0.00 | 0.00 | 28 | 1013.4 |
| 20260508212608 | 25 | 269 | 11.3 | 27.4 | 0.00 | 0.00 | 0.00 | 27 | 1013.3 |
| 20260508211608 | 24 | 285 | 16.1 | 22.5 | 0.00 | 0.00 | 0.00 | 28 | 1013.3 |
| 20260508210608 | 24 | 301 | 14.5 | 20.9 | 0.00 | 0.00 | 0.00 | 28 | 1013.3 |
| 20260508205628 | 24 | 306 | 8.0 | 17.7 | 0.00 | 0.00 | 0.00 | 30 | 1013.4 |
| 20260508204610 | 23 | 245 | 9.7 | 19.3 | 0.00 | 0.00 | 0.00 | 31 | 1013.4 |
| 20260508203628 | 23 | 296 | 12.9 | 25.7 | 0.00 | 0.00 | 0.00 | 32 | 1013.5 |
| 20260508202609 | 23 | 246 | 11.3 | 20.9 | 0.00 | 0.00 | 0.00 | 33 | 1013.5 |
| 20260508201608 | 23 | 283 | 6.4 | 19.3 | 0.00 | 0.00 | 0.00 | 34 | 1013.6 |
| 20260508200608 | 23 | 22 | 0.0 | 3.2 | 0.00 | 0.00 | 0.00 | 35 | 1013.6 |
| 20260508200108 | 22 | 56 | 4.8 | 12.9 | 0.00 | 0.00 | 0.00 | 34 | 1013.6 |
| 20260508195109 | 22 | 49 | 3.2 | 16.1 | 0.00 | 0.00 | 0.00 | 34 | 1013.7 |
| 20260508194108 | 22 | 26 | 1.6 | 8.0 | 0.00 | 0.00 | 0.00 | 35 | 1013.6 |
| 20260508193109 | 23 | 322 | 1.6 | 8.0 | 0.00 | 0.00 | 0.00 | 34 | 1013.5 |
| 20260508192109 | 22 | 300 | 3.2 | 8.0 | 0.00 | 0.00 | 0.00 | 33 | 1013.7 |
| 20260508191109 | 22 | 7 | 3.2 | 9.7 | 0.00 | 0.00 | 0.00 | 35 | 1013.7 |
| 20260508190149 | 22 | 24 | 1.6 | 9.7 | 0.00 | 0.00 | 0.00 | 35 | 1013.7 |
| 20260508185129 | 22 | 315 | 1.6 | 8.0 | 0.00 | 0.00 | 0.00 | 34 | 1013.7 |
| 20260508184110 | 22 | 55 | 0.0 | 4.8 | 0.00 | 0.00 | 0.00 | 34 | 1013.7 |
| 20260508183109 | 21 | 299 | 1.6 | 8.0 | 0.00 | 0.00 | 0.00 | 34 | 1013.7 |
| 20260508182109 | 22 | 288 | 6.4 | 12.9 | 0.00 | 0.00 | 0.00 | 35 | 1013.9 |
| 20260508181110 | 21 | 312 | 3.2 | 9.7 | 0.00 | 0.00 | 0.00 | 35 | 1013.9 |
| 20260508180110 | 21 | 307 | 6.4 | 19.3 | 0.00 | 0.00 | 0.00 | 36 | 1014.0 |
| 20260508175110 | 21 | 266 | 8.0 | 17.7 | 0.00 | 0.00 | 0.00 | 36 | 1014.1 |
| 20260508174110 | 21 | 273 | 6.4 | 14.5 | 0.00 | 0.00 | 0.00 | 38 | 1014.0 |
| 20260508173110 | 20 | 291 | 1.6 | 8.0 | 0.00 | 0.00 | 0.00 | 38 | 1014.1 |
| 20260508172110 | 20 | 286 | 6.4 | 14.5 | 0.00 | 0.00 | 0.00 | 40 | 1014.3 |
| 20260508171111 | 19 | 266 | 4.8 | 11.3 | 0.00 | 0.00 | 0.00 | 40 | 1014.2 |
| 20260508170130 | 18 | 298 | 0.0 | 4.8 | 0.00 | 0.00 | 0.00 | 49 | 1014.2 |
| 20260508165110 | 17 | 0.0 | 0.0 | 0.00 | 0.00 | 0.00 | 54 | 1014.3 | |
| 20260508164111 | 17 | 0.0 | 0.0 | 0.00 | 0.00 | 0.00 | 56 | 1014.3 | |
| 20260508163111 | 17 | 290 | 0.0 | 3.2 | 0.00 | 0.00 | 0.00 | 56 | 1014.3 |
| 20260508162152 | 16 | 304 | 0.0 | 1.6 | 0.00 | 0.00 | 0.00 | 58 | 1014.3 |
| 20260508161131 | 16 | 0.0 | 0.0 | 0.00 | 0.00 | 0.00 | 62 | 1014.1 | |
| 20260508160111 | 15 | 109 | 0.0 | 4.8 | 0.00 | 0.00 | 0.00 | 63 | 1014.2 |
| 20260508155151 | 15 | 0.0 | 0.0 | 0.00 | 0.00 | 0.00 | 65 | 1014.2 | |
| 20260508154111 | 13 | 62 | 0.0 | 6.4 | 0.00 | 0.00 | 0.00 | 68 | 1014.0 |
| 20260508153111 | 13 | 0.0 | 0.0 | 0.00 | 0.00 | 0.00 | 70 | 1014.0 | |
| 20260508152131 | 12 | 65 | 0.0 | 6.4 | 0.00 | 0.00 | 0.00 | 74 | 1014.0 |
| 20260508151111 | 11 | 90 | 0.0 | 4.8 | 0.00 | 0.00 | 0.00 | 76 | 1013.9 |
| 20260508150112 | 11 | 76 | 3.2 | 8.0 | 0.00 | 0.00 | 0.00 | 77 | 1013.9 |
| 20260508145132 | 10 | 139 | 0.0 | 4.8 | 0.00 | 0.00 | 0.00 | 81 | 1013.9 |
| 20260508144112 | 10 | 119 | 0.0 | 3.2 | 0.00 | 0.00 | 0.00 | 82 | 1013.8 |
| 20260508143132 | 10 | 0.0 | 0.0 | 0.00 | 0.00 | 0.00 | 82 | 1013.9 | |
| 20260508142112 | 9 | 83 | 1.6 | 4.8 | 0.00 | 0.00 | 0.00 | 82 | 1013.7 |
| 20260508141112 | 9 | 72 | 4.8 | 6.4 | 0.00 | 0.00 | 0.00 | 82 | 1013.6 |
| 20260508140233 | 8 | 114 | 0.0 | 4.8 | 0.00 | 0.00 | 0.00 | 83 | 1013.6 |
| 20260508135113 | 8 | 136 | 0.0 | 4.8 | 0.00 | 0.00 | 0.00 | 83 | 1013.5 |
| 20260508134113 | 8 | 76 | 0.0 | 4.8 | 0.00 | 0.00 | 0.00 | 84 | 1013.3 |
| 20260508133113 | 7 | 124 | 0.0 | 1.6 | 0.00 | 0.00 | 0.00 | 84 | 1013.3 |
| 20260508132113 | 7 | 0.0 | 0.0 | 0.00 | 0.00 | 0.00 | 84 | 1013.2 | |
| 20260508131113 | 7 | 97 | 0.0 | 3.2 | 0.00 | 0.00 | 0.00 | 84 | 1013.0 |
| 20260508130114 | 7 | 0.0 | 0.0 | 0.00 | 0.00 | 0.00 | 84 | 1013.0 | |
| 20260508125133 | 7 | 60 | 0.0 | 3.2 | 0.00 | 0.00 | 0.00 | 83 | 1012.9 |
| 20260508124114 | 7 | 59 | 0.0 | 3.2 | 0.00 | 0.00 | 0.00 | 83 | 1012.9 |
| 20260508123134 | 7 | 54 | 0.0 | 4.8 | 0.00 | 0.00 | 0.00 | 83 | 1012.9 |
| 20260508122114 | 6 | 161 | 0.0 | 1.6 | 0.00 | 0.00 | 0.00 | 83 | 1012.9 |
| 20260508121114 | 6 | 246 | 0.0 | 3.2 | 0.00 | 0.00 | 0.00 | 83 | 1013.0 |
| 20260508120113 | 6 | 269 | 0.0 | 1.6 | 0.00 | 0.00 | 0.00 | 83 | 1012.9 |
| 20260508115114 | 6 | 130 | 0.0 | 1.6 | 0.00 | 0.00 | 0.00 | 83 | 1012.9 |
| 20260508114114 | 6 | 0.0 | 0.0 | 0.00 | 0.00 | 0.00 | 83 | 1012.9 | |
| 20260508113114 | 7 | 355 | 0.0 | 3.2 | 0.00 | 0.00 | 0.00 | 83 | 1012.8 |
| 20260508112114 | 6 | 191 | 0.0 | 1.6 | 0.00 | 0.00 | 0.00 | 83 | 1012.8 |
| 20260508111114 | 6 | 235 | 0.0 | 1.6 | 0.00 | 0.00 | 0.00 | 83 | 1012.7 |
| 20260508110115 | 7 | 47 | 1.6 | 6.4 | 0.00 | 0.00 | 0.00 | 83 | 1012.5 |
| 20260508105136 | 7 | 249 | 0.0 | 3.2 | 0.00 | 0.00 | 0.00 | 82 | 1012.4 |
| 20260508104114 | 7 | 310 | 0.0 | 3.2 | 0.00 | 0.00 | 0.00 | 82 | 1012.5 |
| 20260508103115 | 7 | 99 | 1.6 | 6.4 | 0.00 | 0.00 | 0.00 | 82 | 1012.4 |
| 20260508102135 | 7 | 146 | 0.0 | 1.6 | 0.00 | 0.00 | 0.00 | 80 | 1012.4 |
| 20260508101135 | 7 | 0.0 | 0.0 | 0.00 | 0.00 | 0.00 | 79 | 1012.4 | |
| 20260508100115 | 7 | 175 | 0.0 | 3.2 | 0.00 | 0.00 | 0.00 | 77 | 1012.3 |
| 20260508095115 | 8 | 0.0 | 0.0 | 0.00 | 0.00 | 0.00 | 76 | 1012.3 | |
| 20260508094115 | 8 | 133 | 0.0 | 0.0 | 0.00 | 0.00 | 0.00 | 75 | 1012.2 |
| 20260508093116 | 8 | 95 | 0.0 | 1.6 | 0.00 | 0.00 | 0.00 | 73 | 1012.2 |
| 20260508092115 | 8 | 65 | 1.6 | 4.8 | 0.00 | 0.00 | 0.00 | 73 | 1012.3 |
| 20260508091116 | 8 | 64 | 0.0 | 3.2 | 0.00 | 0.00 | 0.00 | 71 | 1012.3 |
| 20260508090116 | 9 | 127 | 0.0 | 3.2 | 0.00 | 0.00 | 0.00 | 70 | 1012.3 |
| 20260508085116 | 9 | 107 | 0.0 | 3.2 | 0.00 | 0.00 | 0.00 | 68 | 1012.3 |
| 20260508084116 | 10 | 115 | 0.0 | 4.8 | 0.00 | 0.00 | 0.00 | 67 | 1012.3 |
| 20260508083116 | 10 | 166 | 0.0 | 0.0 | 0.00 | 0.00 | 0.00 | 65 | 1012.3 |
| 20260508082116 | 11 | 209 | 0.0 | 3.2 | 0.00 | 0.00 | 0.00 | 62 | 1012.2 |
| 20260508081117 | 11 | 110 | 0.0 | 4.8 | 0.00 | 0.00 | 0.00 | 61 | 1012.2 |
| 20260508080117 | 11 | 151 | 1.6 | 6.4 | 0.00 | 0.00 | 0.00 | 57 | 1012.2 |
| 20260508075016 | 11 | 182 | 1.6 | 4.8 | 0.00 | 0.00 | 0.00 | 61 | 1012.2 |
| 20260508074017 | 11 | 226 | 1.6 | 4.8 | 0.00 | 0.00 | 0.00 | 63 | 1012.1 |
| 20260508073117 | 11 | 62 | 8.0 | 11.3 | 0.00 | 0.00 | 0.00 | 63 | 1012.1 |
| 20260508072117 | 11 | 116 | 3.2 | 8.0 | 0.00 | 0.00 | 0.00 | 62 | 1012.0 |
| 20260508071117 | 12 | 115 | 3.2 | 6.4 | 0.00 | 0.00 | 0.00 | 60 | 1012.0 |
| 20260508070117 | 12 | 220 | 0.0 | 1.6 | 0.00 | 0.00 | 0.00 | 57 | 1011.9 |
| 20260508065017 | 12 | 126 | 0.0 | 3.2 | 0.00 | 0.00 | 0.00 | 55 | 1011.9 |
| 20260508064017 | 13 | 152 | 0.0 | 1.6 | 0.00 | 0.00 | 0.00 | 55 | 1011.9 |
| 20260508063037 | 13 | 0.0 | 0.0 | 0.00 | 0.00 | 0.00 | 55 | 1011.9 | |
| 20260508062117 | 13 | 111 | 1.6 | 8.0 | 0.00 | 0.00 | 0.00 | 54 | 1011.8 |
| 20260508061118 | 13 | 131 | 1.6 | 4.8 | 0.00 | 0.00 | 0.00 | 54 | 1011.8 |
| 20260508060018 | 15 | 108 | 0.0 | 3.2 | 0.00 | 0.00 | 0.00 | 53 | 1011.7 |
| 20260508055018 | 15 | 3 | 0.0 | 1.6 | 0.00 | 0.00 | 0.00 | 49 | 1011.6 |
| 20260508054018 | 15 | 190 | 0.0 | 3.2 | 0.00 | 0.00 | 0.00 | 49 | 1011.5 |
| 20260508053018 | 15 | 172 | 0.0 | 3.2 | 0.00 | 0.00 | 0.00 | 51 | 1011.5 |
| 20260508052018 | 15 | 131 | 1.6 | 4.8 | 0.00 | 0.00 | 0.00 | 51 | 1011.5 |
| 20260508051018 | 15 | 179 | 0.0 | 1.6 | 0.00 | 0.00 | 0.00 | 51 | 1011.4 |
| 20260508050039 | 16 | 97 | 0.0 | 1.6 | 0.00 | 0.00 | 0.00 | 50 | 1011.3 |
| 20260508045019 | 16 | 114 | 0.0 | 3.2 | 0.00 | 0.00 | 0.00 | 48 | 1011.3 |
| 20260508044019 | 17 | 251 | 3.2 | 6.4 | 0.00 | 0.00 | 0.00 | 48 | 1011.2 |
| 20260508043019 | 18 | 229 | 1.6 | 6.4 | 0.00 | 0.00 | 0.00 | 42 | 1011.1 |
| 20260508042019 | 19 | 256 | 1.6 | 6.4 | 0.00 | 0.00 | 0.00 | 42 | 1011.1 |
| 20260508041019 | 20 | 268 | 1.6 | 6.4 | 0.00 | 0.00 | 0.00 | 40 | 1011.0 |
| 20260508040019 | 21 | 0.0 | 0.0 | 0.00 | 0.00 | 0.00 | 38 | 1011.0 | |
| 20260508035020 | 21 | 211 | 0.0 | 4.8 | 0.00 | 0.00 | 0.00 | 37 | 1010.9 |
| 20260508034019 | 22 | 284 | 4.8 | 8.0 | 0.00 | 0.00 | 0.00 | 36 | 1010.7 |
| 20260508033019 | 22 | 157 | 1.6 | 8.0 | 0.00 | 0.00 | 0.00 | 34 | 1010.6 |
| 20260508032100 | 22 | 129 | 3.2 | 11.3 | 0.00 | 0.00 | 0.00 | 33 | 1010.6 |
| 20260508031020 | 23 | 131 | 3.2 | 11.3 | 0.00 | 0.00 | 0.00 | 33 | 1010.6 |
| 20260508030020 | 23 | 121 | 4.8 | 14.5 | 0.00 | 0.00 | 0.00 | 33 | 1010.6 |
| 20260508025040 | 23 | 121 | 4.8 | 14.5 | 0.00 | 0.00 | 0.00 | 33 | 1010.7 |
| 20260508024020 | 23 | 105 | 6.4 | 19.3 | 0.00 | 0.00 | 0.00 | 32 | 1010.6 |
| 20260508023040 | 23 | 106 | 6.4 | 17.7 | 0.00 | 0.00 | 0.00 | 30 | 1010.6 |
| 20260508022020 | 24 | 138 | 3.2 | 9.7 | 0.00 | 0.00 | 0.00 | 31 | 1010.7 |
| 20260508021023 | 24 | 160 | 1.6 | 11.3 | 0.00 | 0.00 | 0.00 | 30 | 1010.8 |
| 20260508020020 | 24 | 149 | 6.4 | 14.5 | 0.00 | 0.00 | 0.00 | 30 | 1010.9 |
| 20260508015021 | 24 | 163 | 8.0 | 17.7 | 0.00 | 0.00 | 0.00 | 28 | 1010.8 |
| 20260508014021 | 25 | 152 | 4.8 | 17.7 | 0.00 | 0.00 | 0.00 | 30 | 1010.9 |
| 20260508013021 | 25 | 163 | 6.4 | 14.5 | 0.00 | 0.00 | 0.00 | 30 | 1010.9 |
| 20260508012021 | 26 | 148 | 6.4 | 20.9 | 0.00 | 0.00 | 0.00 | 31 | 1010.9 |
| 20260508011021 | 26 | 163 | 8.0 | 22.5 | 0.00 | 0.00 | 0.00 | 31 | 1010.9 |
| 20260508010021 | 26 | 160 | 8.0 | 19.3 | 0.00 | 0.00 | 0.00 | 31 | 1011.0 |
| 20260508005042 | 26 | 204 | 8.0 | 14.5 | 0.00 | 0.00 | 0.00 | 31 | 1011.1 |
| 20260508004022 | 26 | 167 | 8.0 | 17.7 | 0.00 | 0.00 | 0.00 | 32 | 1011.1 |
| 20260508003022 | 26 | 182 | 8.0 | 17.7 | 0.00 | 0.00 | 0.00 | 34 | 1011.2 |
| 20260508002042 | 26 | 102 | 6.4 | 17.7 | 0.00 | 0.00 | 0.00 | 36 | 1011.3 |
| 20260508001022 | 26 | 75 | 6.4 | 16.1 | 0.00 | 0.00 | 0.00 | 36 | 1011.3 |
| 20260508000022 | 25 | 99 | 6.4 | 16.1 | 0.00 | 0.00 | 0.00 | 36 | 1011.4 |
| 20260507235023 | 25 | 65 | 6.4 | 17.7 | 0.00 | 0.00 | 0.00 | 37 | 1011.4 |
| 20260507234023 | 26 | 50 | 4.8 | 16.1 | 0.00 | 0.00 | 0.00 | 37 | 1011.5 |
| 20260507233023 | 26 | 94 | 4.8 | 12.9 | 0.00 | 0.00 | 0.00 | 36 | 1011.7 |
| 20260507232023 | 26 | 36 | 3.2 | 9.7 | 0.00 | 0.00 | 0.00 | 35 | 1011.8 |
| 20260507231023 | 26 | 41 | 3.2 | 12.9 | 0.00 | 0.00 | 0.00 | 35 | 1011.9 |
| 20260507230023 | 26 | 353 | 0.0 | 1.6 | 0.00 | 0.00 | 0.00 | 35 | 1012.0 |
| 20260507225023 | 26 | 68 | 4.8 | 11.3 | 0.00 | 0.00 | 0.00 | 35 | 1012.1 |
| 20260507224043 | 26 | 45 | 3.2 | 12.9 | 0.00 | 0.00 | 0.00 | 36 | 1012.2 |
| 20260507223024 | 26 | 345 | 1.6 | 8.0 | 0.00 | 0.00 | 0.00 | 36 | 1012.3 |
| 20260507222023 | 26 | 311 | 1.6 | 6.4 | 0.00 | 0.00 | 0.00 | 36 | 1012.5 |
| 20260507221044 | 25 | 321 | 1.6 | 11.3 | 0.00 | 0.00 | 0.00 | 36 | 1012.6 |
| 20260507220024 | 25 | 309 | 3.2 | 14.5 | 0.00 | 0.00 | 0.00 | 36 | 1012.7 |
| 20260507215024 | 25 | 321 | 3.2 | 9.7 | 0.00 | 0.00 | 0.00 | 37 | 1012.8 |